When you browse on this site, cookies collect data to enhance your experience and personalize the content and advertising you see.
Visit our Privacy Policy to learn more. By continuing to use the site, you agree to this use of cookies and data.
  • Em Portugal
  • Lista de países
  • Para 7 dias
  • Temperatura da água
  • Mapas de satélite
  • Mapa do tempo
  • Widgets de tempo
  • user-avatar
    Iniciar Sessão

    Previsão horária em Djelfa

    Hoje, 16 Dezembro, Domingo

    Tempo Temperatura Precipitação Vento Pressão Humidade
    00:00 +4°C° 0 mm 4 m/s 668 mmHg 63%
    01:00 +4°C° 0 mm 3 m/s 668 mmHg 62%
    02:00 +4°C° 0 mm 3 m/s 668 mmHg 60%
    03:00 +4°C° 0 mm 3 m/s 668 mmHg 58%
    04:00 +4°C° 0 mm 3 m/s 668 mmHg 58%
    05:00 +4°C° 0 mm 3 m/s 668 mmHg 57%
    06:00 +5°C° 0 mm 2 m/s 668 mmHg 56%
    07:00 +7°C° 0 mm 2 m/s 668 mmHg 52%
    08:00 +8°C° 0 mm 2 m/s 669 mmHg 49%
    09:00 +10°C° 0 mm 2 m/s 669 mmHg 45%
    10:00 +12°C° 0 mm 3 m/s 670 mmHg 42%
    11:00 +13°C° 0 mm 3 m/s 670 mmHg 39%
    12:00 +16°C° 0 mm 3 m/s 670 mmHg 36%
    13:00 +15°C° 0 mm 4 m/s 670 mmHg 35%
    14:00 +17°C° 0 mm 4 m/s 670 mmHg 34%
    15:00 +17°C° 0 mm 4 m/s 670 mmHg 34%
    16:00 +14°C° 0 mm 4 m/s 670 mmHg 37%
    17:00 +13°C° 0 mm 4 m/s 669 mmHg 41%
    18:00 +11°C° 0 mm 3 m/s 669 mmHg 45%
    19:00 +11°C° 0 mm 3 m/s 669 mmHg 47%
    20:00 +10°C° 0 mm 3 m/s 669 mmHg 49%
    21:00 +10°C° 0 mm 3 m/s 669 mmHg 51%
    22:00 +8°C° 0 mm 4 m/s 669 mmHg 52%
    23:00 +8°C° 0 mm 4 m/s 669 mmHg 54%

    Amanhã, 17 Dezembro, Segunda-feira

    Tempo Temperatura Precipitação Vento Pressão Humidade
    00:00 +8°C° 0 mm 4 m/s 669 mmHg 55%
    01:00 +8°C° 0 mm 5 m/s 669 mmHg 56%
    02:00 +7°C° 0 mm 5 m/s 669 mmHg 57%
    03:00 +7°C° 0 mm 6 m/s 669 mmHg 58%
    04:00 +5°C° 0 mm 6 m/s 669 mmHg 63%
    05:00 +5°C° 0 mm 6 m/s 669 mmHg 68%
    06:00 +5°C° 0 mm 6 m/s 669 mmHg 73%
    07:00 +6°C° 0 mm 5 m/s 669 mmHg 74%
    08:00 +7°C° 0 mm 5 m/s 670 mmHg 75%
    09:00 +8°C° 0 mm 5 m/s 670 mmHg 76%
    10:00 +9°C° 0 mm 6 m/s 670 mmHg 71%
    11:00 +10°C° 0 mm 6 m/s 671 mmHg 66%
    12:00 +11°C° 0 mm 6 m/s 671 mmHg 61%
    13:00 +11°C° 0 mm 6 m/s 671 mmHg 59%
    14:00 +11°C° 0 mm 6 m/s 670 mmHg 58%
    15:00 +12°C° 0 mm 5 m/s 670 mmHg 57%
    16:00 +11°C° 0 mm 4 m/s 670 mmHg 63%
    17:00 +10°C° 0 mm 3 m/s 670 mmHg 68%
    18:00 +8°C° 0 mm 2 m/s 670 mmHg 74%
    19:00 +8°C° 0 mm 2 m/s 670 mmHg 75%
    20:00 +7°C° 0 mm 2 m/s 670 mmHg 77%
    21:00 +8°C° 0 mm 1 m/s 671 mmHg 79%
    22:00 +7°C° 0 mm 1 m/s 670 mmHg 81%
    23:00 +7°C° 0 mm 1 m/s 670 mmHg 82%

    Depois de amanhã, 18 Dezembro, Terça-feira

    Tempo Temperatura Precipitação Vento Pressão Humidade
    00:00 +5°C° 0 mm 0 m/s 670 mmHg 83%
    01:00 +6°C° 0 mm 1 m/s 670 mmHg 83%
    02:00 +6°C° 0 mm 1 m/s 669 mmHg 83%
    03:00 +5°C° 0 mm 1 m/s 669 mmHg 83%
    04:00 +5°C° 0 mm 1 m/s 669 mmHg 82%
    05:00 +5°C° 0 mm 1 m/s 669 mmHg 81%
    06:00 +5°C° 0 mm 1 m/s 669 mmHg 81%
    07:00 +6°C° 0 mm 1 m/s 669 mmHg 74%
    08:00 +7°C° 0 mm 2 m/s 670 mmHg 67%
    09:00 +8°C° 0 mm 2 m/s 671 mmHg 60%
    10:00 +10°C° 0 mm 3 m/s 671 mmHg 55%
    11:00 +11°C° 0 mm 3 m/s 671 mmHg 51%
    12:00 +12°C° 0 mm 3 m/s 671 mmHg 46%
    13:00 +13°C° 0 mm 3 m/s 670 mmHg 45%
    14:00 +13°C° 0 mm 3 m/s 670 mmHg 45%
    15:00 +13°C° 0 mm 4 m/s 670 mmHg 44%
    16:00 +12°C° 0 mm 3 m/s 670 mmHg 49%
    17:00 +11°C° 0 mm 3 m/s 669 mmHg 55%
    18:00 +9°C° 0 mm 3 m/s 669 mmHg 60%
    19:00 +9°C° 0 mm 3 m/s 669 mmHg 62%
    20:00 +8°C° 0 mm 3 m/s 669 mmHg 63%
    21:00 +8°C° 0 mm 3 m/s 669 mmHg 65%
    22:00 +7°C° 0 mm 3 m/s 669 mmHg 66%
    23:00 +7°C° 0 mm 3 m/s 669 mmHg 66%

    19 Dezembro, Quarta-feira

    Tempo Temperatura Precipitação Vento Pressão Humidade
    00:00 +7°C° 0 mm 3 m/s 669 mmHg 67%
    01:00 +5°C° 0 mm 3 m/s 669 mmHg 68%
    02:00 +6°C° 0 mm 2 m/s 668 mmHg 70%
    03:00 +6°C° 0 mm 2 m/s 668 mmHg 71%
    04:00 +6°C° 0 mm 2 m/s 668 mmHg 72%
    05:00 +6°C° 0 mm 2 m/s 668 mmHg 72%
    06:00 +5°C° 0 mm 2 m/s 668 mmHg 72%
    07:00 +7°C° 0 mm 2 m/s 668 mmHg 66%
    08:00 +8°C° 0 mm 3 m/s 669 mmHg 60%
    09:00 +9°C° 0 mm 3 m/s 669 mmHg 54%
    10:00 +11°C° 0 mm 3 m/s 669 mmHg 48%
    11:00 +12°C° 0 mm 3 m/s 669 mmHg 43%
    12:00 +13°C° 0 mm 3 m/s 669 mmHg 38%
    13:00 +14°C° 0 mm 3 m/s 669 mmHg 37%
    14:00 +14°C° 0 mm 3 m/s 669 mmHg 35%
    15:00 +14°C° 0 mm 3 m/s 668 mmHg 34%
    16:00 +14°C° 0 mm 2 m/s 668 mmHg 39%
    17:00 +12°C° 0 mm 2 m/s 668 mmHg 44%
    18:00 +10°C° 0 mm 1 m/s 667 mmHg 50%
    19:00 +10°C° 0 mm 1 m/s 668 mmHg 51%
    20:00 +10°C° 0 mm 1 m/s 668 mmHg 52%
    21:00 +9°C° 0 mm 1 m/s 668 mmHg 54%
    22:00 +9°C° 0 mm 1 m/s 668 mmHg 53%
    23:00 +9°C° 0 mm 2 m/s 668 mmHg 53%

    20 Dezembro, Quinta-feira

    Tempo Temperatura Precipitação Vento Pressão Humidade
    00:00 +9°C° 0 mm 2 m/s 668 mmHg 52%
    01:00 +8°C° 0 mm 2 m/s 668 mmHg 59%
    02:00 +7°C° 0 mm 3 m/s 668 mmHg 66%
    03:00 +7°C° 0 mm 3 m/s 667 mmHg 72%
    04:00 +5°C° 0 mm 3 m/s 668 mmHg 76%
    05:00 +5°C° 0 mm 3 m/s 668 mmHg 80%
    06:00 +5°C° 0 mm 3 m/s 668 mmHg 84%
    07:00 +7°C° 0 mm 3 m/s 668 mmHg 78%
    08:00 +8°C° 0 mm 3 m/s 669 mmHg 73%
    09:00 +9°C° 0 mm 3 m/s 669 mmHg 67%
    10:00 +10°C° 0 mm 3 m/s 669 mmHg 61%
    11:00 +11°C° 0 mm 3 m/s 669 mmHg 55%
    12:00 +12°C° 0 mm 4 m/s 669 mmHg 49%
    13:00 +12°C° 0 mm 4 m/s 669 mmHg 48%
    14:00 +12°C° 0 mm 4 m/s 669 mmHg 48%
    15:00 +12°C° 0 mm 4 m/s 669 mmHg 48%
    16:00 +11°C° 0 mm 3 m/s 669 mmHg 53%
    17:00 +10°C° 0 mm 3 m/s 669 mmHg 58%
    18:00 +9°C° 0 mm 2 m/s 669 mmHg 63%
    19:00 +8°C° 0 mm 2 m/s 669 mmHg 65%
    20:00 +8°C° 0 mm 2 m/s 669 mmHg 68%
    21:00 +8°C° 0 mm 1 m/s 670 mmHg 71%
    22:00 +8°C° 0 mm 1 m/s 670 mmHg 72%
    23:00 +7°C° 0 mm 1 m/s 669 mmHg 74%

    21 Dezembro, Sexta-feira

    Tempo Temperatura Precipitação Vento Pressão Humidade
    00:00 +7°C° 0 mm 1 m/s 669 mmHg 75%
    01:00 +6°C° 0 mm 1 m/s 669 mmHg 77%
    02:00 +6°C° 0 mm 1 m/s 669 mmHg 78%
    03:00 +6°C° 0 mm 1 m/s 669 mmHg 79%
    04:00 +5°C° 0 mm 1 m/s 669 mmHg 81%
    05:00 +5°C° 0 mm 1 m/s 669 mmHg 82%
    06:00 +5°C° 0 mm 1 m/s 669 mmHg 83%
    07:00 +6°C° 0 mm 1 m/s 670 mmHg 76%
    08:00 +7°C° 0 mm 1 m/s 671 mmHg 70%
    09:00 +9°C° 0 mm 1 m/s 672 mmHg 63%
    10:00 +9°C° 0 mm 1 m/s 672 mmHg 57%
    11:00 +10°C° 0 mm 1 m/s 672 mmHg 52%
    12:00 +11°C° 0 mm 1 m/s 672 mmHg 46%
    13:00 +12°C° 0 mm 1 m/s 672 mmHg 44%
    14:00 +12°C° 0 mm 1 m/s 672 mmHg 42%
    15:00 +12°C° 0 mm 1 m/s 672 mmHg 40%
    16:00 +11°C° 0 mm 1 m/s 672 mmHg 45%
    17:00 +10°C° 0 mm 1 m/s 671 mmHg 50%
    18:00 +8°C° 0 mm 0 m/s 671 mmHg 56%
    19:00 +7°C° 0 mm 0 m/s 671 mmHg 58%
    20:00 +8°C° 0 mm 1 m/s 672 mmHg 60%
    21:00 +7°C° 0 mm 1 m/s 672 mmHg 62%
    22:00 +7°C° 0 mm 1 m/s 671 mmHg 63%
    23:00 +7°C° 0 mm 1 m/s 671 mmHg 64%
    Mostrar mais